TimeAKDT,TemperatureF,Dew PointF,Humidity,Sea Level PressureIn,VisibilityMPH,Wind Direction,Wind SpeedMPH,Gust SpeedMPH,PrecipitationIn,Events,Conditions,WindDirDegrees,DateUTC
12:03 AM,42.8,42.8,100,29.83,3.0,NE,27.6,33.4,N/A,,Overcast,40,2012-10-08 08:03:00
12:53 AM,42.1,42.1,100,29.80,3.0,NE,26.5,33.4,0.01,,Overcast,40,2012-10-08 08:53:00
1:23 AM,42.8,42.8,100,29.85,2.5,NE,21.9,-,N/A,,Overcast,50,2012-10-08 09:23:00
1:48 AM,42.8,42.8,100,29.85,1.2,NE,20.7,-,N/A,,Overcast,50,2012-10-08 09:48:00
1:53 AM,42.1,42.1,100,29.82,1.0,NE,19.6,-,N/A,,Mist,50,2012-10-08 09:53:00
2:03 AM,42.8,42.8,100,29.85,0.8,NE,21.9,-,N/A,,Mist,50,2012-10-08 10:03:00
2:53 AM,43.0,43.0,100,29.82,0.5,NE,19.6,-,N/A,Fog,Fog,50,2012-10-08 10:53:00
3:33 AM,44.6,44.6,100,29.86,1.2,East,15.0,-,0.00,Rain,Light Rain,80,2012-10-08 11:33:00
3:36 AM,44.6,44.6,100,29.86,3.0,East,15.0,-,0.00,Rain,Light Rain,80,2012-10-08 11:36:00
3:38 AM,44.6,44.6,100,29.86,4.0,ENE,12.7,-,0.00,Rain,Light Rain,70,2012-10-08 11:38:00
3:49 AM,44.6,44.6,100,29.85,1.5,NE,15.0,-,0.01,Rain,Light Rain,50,2012-10-08 11:49:00
3:53 AM,44.1,44.1,100,29.82,1.2,ENE,15.0,-,0.01,Rain,Light Rain,60,2012-10-08 11:53:00
4:00 AM,44.6,44.6,100,29.85,1.5,ENE,13.8,-,0.00,Rain,Light Rain,60,2012-10-08 12:00:00
4:04 AM,44.6,44.6,100,29.85,2.5,ENE,12.7,-,0.00,Rain,Light Rain,70,2012-10-08 12:04:00
4:11 AM,44.6,44.6,100,29.85,9.0,ENE,15.0,-,0.00,,Overcast,60,2012-10-08 12:11:00
4:53 AM,46.0,46.0,100,29.82,8.0,East,16.1,-,0.02,Rain,Light Rain,90,2012-10-08 12:53:00
5:18 AM,44.6,44.6,100,29.85,7.0,NE,12.7,-,0.01,Rain,Light Rain,50,2012-10-08 13:18:00
5:36 AM,44.6,44.6,100,29.85,5.0,NE,12.7,-,0.01,Rain,Light Rain,50,2012-10-08 13:36:00
5:53 AM,44.1,44.1,100,29.82,6.0,NE,11.5,-,0.03,Rain,Rain,50,2012-10-08 13:53:00
6:02 AM,44.6,44.6,100,29.85,8.0,NE,10.4,-,0.01,Rain,Light Rain,40,2012-10-08 14:02:00
6:36 AM,44.6,44.6,100,29.85,6.0,NE,11.5,-,0.05,Rain,Rain,40,2012-10-08 14:36:00
6:53 AM,44.1,44.1,100,29.81,5.0,NE,15.0,-,0.07,Rain,Rain,50,2012-10-08 14:53:00
7:01 AM,44.6,44.6,100,29.85,4.0,NE,12.7,-,0.01,Rain,Rain,50,2012-10-08 15:01:00
7:09 AM,44.6,44.6,100,29.85,6.0,ENE,12.7,-,0.02,Rain,Light Rain,60,2012-10-08 15:09:00
7:53 AM,46.0,45.0,96,29.81,4.0,NE,13.8,-,0.05,Rain,Light Rain,50,2012-10-08 15:53:00
8:00 AM,46.4,46.4,100,29.84,4.0,ENE,13.8,-,0.00,Rain,Light Rain,60,2012-10-08 16:00:00
8:36 AM,46.4,46.4,100,29.84,4.0,East,15.0,-,0.01,Rain,Light Rain,100,2012-10-08 16:36:00
8:48 AM,46.4,46.4,100,29.84,2.5,East,15.0,-,0.01,Rain,Light Rain,100,2012-10-08 16:48:00
8:53 AM,46.9,46.0,97,29.81,2.5,East,16.1,-,0.01,Rain,Light Rain,100,2012-10-08 16:53:00
9:03 AM,46.4,46.4,100,29.84,3.0,East,12.7,-,0.00,Rain,Light Rain,100,2012-10-08 17:03:00
9:53 AM,46.0,46.0,100,29.81,4.0,ESE,13.8,-,0.00,,Overcast,110,2012-10-08 17:53:00
10:39 AM,46.4,46.4,100,29.84,2.5,ESE,15.0,21.9,0.00,,Overcast,120,2012-10-08 18:39:00
10:48 AM,46.4,46.4,100,29.84,1.5,ESE,16.1,-,0.00,Rain,Light Rain,120,2012-10-08 18:48:00
10:53 AM,46.0,46.0,100,29.81,1.5,ESE,16.1,24.2,0.00,Rain,Light Rain,120,2012-10-08 18:53:00
11:38 AM,46.4,46.4,100,29.84,1.8,ESE,15.0,20.7,0.00,Rain,Light Rain,120,2012-10-08 19:38:00
11:51 AM,46.4,46.4,100,29.85,2.5,ESE,15.0,-,0.00,Rain,Light Rain,120,2012-10-08 19:51:00
11:53 AM,46.9,46.0,97,29.81,2.5,ESE,15.0,-,0.00,Rain,Light Rain,120,2012-10-08 19:53:00
12:05 PM,46.4,46.4,100,29.85,2.0,SE,16.1,-,0.01,Rain,Light Rain,130,2012-10-08 20:05:00
12:34 PM,46.4,46.4,100,29.85,3.0,SE,18.4,23.0,0.03,Rain,Rain,130,2012-10-08 20:34:00
12:53 PM,46.9,46.0,97,29.82,3.0,SE,16.1,20.7,0.05,Rain,Light Rain,130,2012-10-08 20:53:00
1:02 PM,46.4,46.4,100,29.85,3.0,SE,15.0,-,0.01,Rain,Light Rain,130,2012-10-08 21:02:00
1:53 PM,46.9,46.0,97,29.82,5.0,ESE,15.0,-,0.06,Rain,Light Rain,120,2012-10-08 21:53:00
2:32 PM,46.4,46.4,100,29.85,3.0,ESE,11.5,-,0.02,Rain,Light Rain,120,2012-10-08 22:32:00
2:48 PM,46.4,46.4,100,29.85,2.5,SE,16.1,-,0.03,Rain,Rain,130,2012-10-08 22:48:00
2:53 PM,46.9,46.0,97,29.82,3.0,SE,15.0,-,0.03,Rain,Rain,130,2012-10-08 22:53:00
3:01 PM,46.4,46.4,100,29.85,4.0,SE,12.7,-,0.01,Rain,Light Rain,130,2012-10-08 23:01:00
3:12 PM,46.4,46.4,100,29.85,8.0,SE,15.0,-,0.01,Rain,Light Rain,130,2012-10-08 23:12:00
3:38 PM,46.4,46.4,100,29.85,3.0,SE,12.7,-,0.04,Rain,Rain,130,2012-10-08 23:38:00
3:53 PM,46.9,46.0,97,29.81,4.0,SE,15.0,-,0.06,Rain,Rain,130,2012-10-08 23:53:00
4:53 PM,46.9,46.0,97,29.80,6.0,SE,17.3,24.2,0.06,Rain,Light Rain,130,2012-10-09 00:53:00
5:34 PM,46.4,46.4,100,29.83,9.0,SE,18.4,-,0.02,Rain,Light Rain,130,2012-10-09 01:34:00
5:53 PM,46.9,46.0,97,29.80,10.0,SE,16.1,25.3,0.03,Rain,Light Rain,130,2012-10-09 01:53:00
6:25 PM,46.4,46.4,100,29.83,5.0,SE,16.1,25.3,0.01,Rain,Light Rain,130,2012-10-09 02:25:00
6:53 PM,46.0,46.0,100,29.80,5.0,SE,12.7,23.0,0.02,Rain,Light Rain,130,2012-10-09 02:53:00
7:20 PM,46.4,46.4,100,29.83,7.0,SE,19.6,-,0.00,,Overcast,130,2012-10-09 03:20:00
7:36 PM,46.4,46.4,100,29.83,2.0,SE,20.7,27.6,0.00,Rain,Light Rain,130,2012-10-09 03:36:00
7:53 PM,46.0,46.0,100,29.80,2.5,SE,20.7,27.6,0.00,Rain,Light Rain,130,2012-10-09 03:53:00
8:03 PM,46.4,46.4,100,29.83,2.5,SE,20.7,29.9,0.01,Rain,Light Rain,130,2012-10-09 04:03:00
8:06 PM,46.4,46.4,100,29.83,3.0,SE,17.3,28.8,0.01,Rain,Light Rain,130,2012-10-09 04:06:00
8:43 PM,46.4,46.4,100,29.84,7.0,SE,20.7,26.5,0.01,,Overcast,130,2012-10-09 04:43:00
8:53 PM,46.0,46.0,100,29.81,7.0,SE,20.7,28.8,0.01,,Overcast,130,2012-10-09 04:53:00
9:53 PM,46.9,46.0,97,29.81,8.0,SE,23.0,27.6,N/A,,Overcast,130,2012-10-09 05:53:00
10:53 PM,46.9,46.0,97,29.82,8.0,SE,19.6,27.6,N/A,,Clear,130,2012-10-09 06:53:00